Observations for Trim Patrick St
| Time | AQI | Temp °C | Hum % | Pres Pa | CO μg/m³ | H₂S μg/m³ | NO μg/m³ | NO₂ μg/m³ | O₃ μg/m³ | SO₂ μg/m³ | PM1 μg/m³ | PM2.5 μg/m³ | PM10 μg/m³ |
|---|---|---|---|---|---|---|---|---|---|---|---|---|---|
| Friday 31 July 2026 | |||||||||||||
| 12:21 | 2 | 24.7 | 38 | 68,865 | 0 | 0 | 1.69 | 9.03 | 82.6 | 5.91 | 2.86 | 8.73 | 9.6 |
| 12:20 | 2 | 24.7 | 39 | 68,867 | 0 | 0.16 | 1.5 | 9.12 | 99.83 | 7.37 | 2.86 | 7.92 | 8.71 |
| 12:19 | 2 | 24.7 | 39 | 68,869 | 0 | 0 | 1.39 | 8.92 | 96.23 | 6.77 | 3.71 | 9.47 | 10.42 |
| 12:18 | 2 | 24.7 | 39 | 68,873 | 0 | 0 | 1.53 | 8.63 | 85.91 | 6.93 | 2.86 | 9.49 | 10.44 |
| 12:17 | 2 | 24.7 | 38 | 68,878 | 0 | 0 | 1.66 | 8.27 | 92.5 | 8.05 | 2.86 | 9.54 | 10.5 |
| 12:15 | 2 | 24.7 | 39 | 68,900 | 0 | 0 | 1.86 | 8.59 | 72.41 | 6.29 | 3.71 | 10.27 | 11.3 |
| 12:09 | 2 | 24.9 | 37 | 68,900 | 0 | 0 | 1.9 | 6.99 | 76.04 | 7.75 | 2.86 | 8.79 | 9.67 |
| 12:07 | 2 | 25.2 | 38 | 68,876 | 0 | 0 | 1.97 | 6.27 | 69.64 | 8.21 | 2.86 | 8.78 | 9.66 |
| 12:01 | 2 | 25.6 | 36 | 68,934 | 0 | 0 | 2.24 | 7.59 | 71.9 | 7.16 | 2.86 | 9.65 | 10.62 |
| 12:00 | 2 | 25.6 | 38 | 68,928 | 0 | 0 | 2.12 | 5.88 | 70.86 | 7.65 | 2.86 | 8.77 | 9.64 |
| 11:59 | 2 | 25.6 | 37 | 68,951 | 0 | 0 | 2.18 | 4.11 | 65.81 | 7.03 | 2.86 | 9.61 | 10.57 |
| 11:58 | 2 | 25.6 | 36 | 68,949 | 0 | 0 | 2.27 | 4.18 | 63.15 | 6.61 | 2 | 8.89 | 9.78 |
| 11:57 | 2 | 25.6 | 38 | 68,947 | 0 | 0 | 2.03 | 6.23 | 70.74 | 8.23 | 2.86 | 9.52 | 10.47 |
| 11:56 | 2 | 25.6 | 38 | 68,941 | 0 | 0 | 2.06 | 8.71 | 72.06 | 7.83 | 3.71 | 10.35 | 11.38 |
| 11:55 | 2 | 25.6 | 37 | 68,930 | 0 | 0 | 1.92 | 7.22 | 71.24 | 7.49 | 3.71 | 10.4 | 11.44 |
| 11:54 | 2 | 25.7 | 38 | 68,918 | 0 | 0 | 1.86 | 5.29 | 65.65 | 7.35 | 3.71 | 10.36 | 11.4 |
| 11:53 | 2 | 25.7 | 39 | 68,908 | 0 | 0 | 1.86 | 7.04 | 66.83 | 7.6 | 4.57 | 11.83 | 13.01 |
| 11:52 | 2 | 25.7 | 38 | 68,922 | 0 | 0 | 1.82 | 6.49 | 71.33 | 8.05 | 2.86 | 9.5 | 10.45 |
| 11:51 | 2 | 25.8 | 37 | 68,906 | 0 | 0 | 1.7 | 4.53 | 69.78 | 7.56 | 4.57 | 10.39 | 11.43 |
| 11:50 | 2 | 25.9 | 36 | 68,918 | 0 | 0 | 2.08 | 7.86 | 70.33 | 7.29 | 4.57 | 10.46 | 11.51 |